User: anonymous   Login
Location: Unspecified
(42.3650°N, 71.1030°W)
Time: 22:04:35
(UTC+00:00)
Language:

Vanguard 2 - Orbit

View from above orbital plane
View from above orbital plane
View from above satellite
View from above satellite

Ground track
Ground track

The orbit data is extracted from the following two-line orbital elements,

1    11U 59001A   24175.49657024  .00001028  00000-0  52046-3 0  9994
2    11  32.8795 300.3929 1456255 264.0452  79.2861 11.88475033791005
Epoch (UTC): 23 June 2024 11:55:03
Eccentricity: 0.1456255
inclination: 32.8795°
perigee height: 552 km
apogee height: 2914 km
right ascension of ascending node: 300.3929°
argument of perigee: 264.0452°
revolutions per day: 11.88475033
mean anomaly at epoch: 79.2861°
orbit number at epoch: 79100

The dashed part of the orbit path shows where the satellite is in the earth's shadow,  

DLR